Orbital Elements at Epoch 2459200.5 (2020-Dec-17.0) TDB
Reference: JPL 20 (heliocentric ecliptic J2000)
Element | Value | Uncertainty (1-sigma) | Units |
e | .1067774229129212 | 4.7266e-08 | |
a | 2.737707540559821 | 1.7834e-08 | au |
q | 2.445382184689571 | 1.2657e-07 | au |
i | 4.023316831934342 | 4.1185e-06 | deg |
node | 102.8607973589565 | 6.6867e-05 | deg |
peri | 282.43768699485 | 7.0445e-05 | deg |
M | 107.6319257524548 | 2.0357e-05 | deg |
tp | 2458705.827673698675 (2019-Aug-10.32767370) | 9.3626e-05 | TDB |
period | 1654.546606162673 4.53 | 1.6167e-05 4.426e-08 | d yr |
n | .217582266138114 | 2.126e-09 | deg/d |
Q | 3.03003289643007 | 1.9738e-08 | au |
|
| | Orbit Determination Parameters
Additional Information
|